Starlink 11285

operational
NORAD ID: 61578 Int'l Des: 2024-187 Owner: SPXS Country: US Constellation: starlink
LEOCIRCULAR

About Starlink 11285

Description loading...

Live Position

Loading 3D Globe...

Upcoming Passes

Altitude History

Altitude vs Time

uPlot chart will show altitude changes over time

Two-Line Element Set

1 61578U 24187E 26095.17976054 -.00004381 00000-0 -31428-4 0 9990
2 61578 53.1599 165.4628 0000457 131.9155 228.1902 15.69640727 84861
Epoch: Apr 5, 2026 • Age: 10 hours

Current Status

Altitude 366.1 km
Velocity 7.70 km/s
Sub-Earth Point 52.35°N, 162.82°W
Launch Date Oct 18, 2024
Age 1.4 years
Type internet

Technical Details

Classification Payload
Mass 960.00 kg
Dry Mass 910.00 kg
Total Mass 960.00 kg
Length 0.30 m
Diameter 4.10 m
Span 29.00 m
Shape Box + pan
Manufacturer SPXS
Bus Type Starlink V2MD
Phase Status In Orbit
Owner/State SPXS/US

Large Constellations

Loading constellations...